Theta_e
323 323 324 324 325 323 323 324 319 315 316 321 322 328 330 330 331 329 328 324 323 320 320 320 321 323 323 324 323 324 324 324 325 325 328 327 325 323
322 321 322 321 323 324 322 323 325 321 316 323 323 326 329 329 329 327 326 325 321 319 319 318 318 319 320 320 320 321 322 321 321 321 322 324 325 324
320 321 320 321 321 324 323 325 325 323 319 321 324 326 326 326 326 326 326 325 322 320 320 318 316 316 317 317 317 318 318 319 319 319 319 319 320 321
321 321 321 321 322 324 325 325 325 325 322 318 322 324 324 326 325 325 325 326 325 322 319 317 315 315 314 314 314 313 312 311 311 313 314 315 316 316
321 321 321 321 322 323 325 325 326 325 324 321 321 324 324 326 325 325 324 324 326 323 317 316 314 314 313 312 311 310 308 307 306 307 308 309 309 309
321 322 322 322 322 324 324 325 325 324 324 322 321 321 323 324 323 320 317 317 322 321 318 315 314 313 312 311 312 312 307 305 304 304 304 303 303 304
322 322 322 321 319 320 324 323 323 321 321 320 318 319 319 321 320 318 317 316 317 318 317 314 315 314 311 310 310 308 305 304 303 302 302 300 300 300
321 321 320 318 315 312 312 312 319 320 318 317 315 317 317 319 319 318 316 315 313 318 317 310 311 308 309 309 305 303 302 302 302 301 300 299 299 298
322 322 322 321 320 319 310 310 311 311 315 319 316 318 317 320 317 315 315 314 315 313 314 307 309 306 308 307 303 301 301 300 300 299 299 298 297 296
324 323 322 321 318 319 318 318 317 317 318 319 321 318 320 320 320 319 317 314 311 309 316 307 307 306 307 305 301 300 299 298 297 298 298 297 296 295
323 323 322 321 304 304 317 316 313 310 302 300 301 300 300 303 312 318 316 315 311 309 309 308 306 306 306 304 303 300 298 297 296 296 297 297 295 295
322 321 310 318 301 303 315 315 313 310 308 308 310 307 307 305 305 320 318 314 307 307 310 308 306 306 303 304 301 300 301 297 296 295 296 295 295 297
321 320 321 303 301 300 304 315 313 309 304 308 308 308 309 308 307 308 310 310 307 306 308 308 306 305 303 302 303 300 299 297 296 296 295 294 294 294
321 322 318 300 298 297 303 299 296 303 310 309 308 307 306 305 304 305 305 304 304 305 307 308 303 303 300 298 297 298 298 297 295 294 295 294 294 294
321 314 300 295 296 298 297 295 298 310 310 309 307 305 304 303 303 301 302 302 300 300 299 303 303 299 298 296 295 293 292 294 294 293 293 294 293 294
303 303 299 298 297 300 301 302 310 311 310 309 306 303 303 302 302 302 299 298 296 295 297 298 298 299 295 293 292 291 292 290 292 291 292 292 293 294
301 301 301 301 302 301 302 305 307 307 307 305 303 302 303 302 301 302 300 299 296 293 293 295 297 298 298 295 291 291 291 291 291 290 289 289 291 292
303 304 303 303 303 302 302 304 307 305 306 305 304 304 303 302 301 300 299 298 294 293 292 293 294 293 292 294 294 291 291 290 290 289 289 286 287 290
309 305 305 303 304 302 301 303 305 306 305 305 304 303 303 303 300 299 297 295 293 293 292 292 291 290 288 287 291 293 289 289 289 288 287 287 286 289
305 307 306 304 303 303 302 303 304 304 304 304 303 303 302 300 299 297 296 293 291 292 291 291 291 291 290 289 289 291 288 288 288 287 286 288 289 288
304 305 306 304 302 303 303 304 305 304 304 303 302 302 302 300 299 296 294 290 290 291 290 290 292 286 291 291 288 288 289 289 288 287 287 286 285 286
305 306 307 305 304 303 303 304 305 302 302 303 303 302 301 300 299 295 294 291 291 291 291 291 291 291 290 288 286 285 286 287 288 287 287 287 285 282
307 307 307 308 308 306 305 305 305 305 304 304 302 301 301 300 298 295 293 293 292 291 291 291 289 289 288 287 285 285 283 284 284 284 285 287 286 287
Wind_Speed
5 6 5 3 4 3 4 3 3 3 2 2 1 7 8 12 12 8 8 11 11 9 7 7 8 7 6 6 4 3 4 4 4 5 7 10 11 11
4 6 5 3 4 4 4 3 2 3 4 1 3 6 8 8 13 8 8 10 10 8 7 7 7 6 5 5 5 5 3 4 5 7 8 9 9 10
5 6 6 5 4 5 3 3 4 5 6 4 5 7 5 13 10 8 7 6 4 7 6 6 6 6 5 5 5 5 4 4 5 7 8 9 10 11
7 8 8 5 6 6 4 5 5 4 5 10 8 7 7 11 9 8 5 4 3 7 5 7 7 6 5 5 4 5 5 4 5 7 8 10 11 13
7 7 6 9 7 5 6 7 6 6 4 7 6 5 7 8 7 5 5 4 2 5 6 4 4 2 3 2 2 1 2 5 6 6 8 9 10 11
6 6 6 8 9 7 7 8 7 7 7 8 8 7 5 5 5 3 3 2 2 1 4 6 5 6 6 6 6 8 8 7 9 10 10 10 10 10
7 7 6 8 9 6 5 5 8 5 7 7 7 7 6 6 5 2 3 2 3 2 3 4 6 7 7 10 13 14 13 14 14 14 14 12 11 10
8 8 9 12 12 14 13 11 9 7 8 4 3 6 5 3 3 3 4 3 3 3 4 7 6 7 7 8 13 15 17 18 16 14 12 11 12 12
9 8 8 7 8 7 9 11 9 10 5 5 7 6 6 7 6 4 3 3 3 2 7 6 3 8 7 8 15 16 15 13 12 13 16 17 15 11
8 8 7 6 5 6 7 6 4 4 3 3 4 5 4 7 6 4 5 7 5 4 1 4 2 5 6 8 10 11 12 17 20 18 15 14 14 11
7 7 5 5 5 10 6 8 7 5 8 11 11 9 9 11 8 8 6 6 2 2 3 3 3 3 4 5 5 13 19 16 15 13 11 11 12 7
5 5 6 5 6 6 5 5 7 4 7 6 6 8 8 8 5 3 7 6 4 2 2 3 4 4 4 2 6 9 8 10 5 7 9 10 12 9
6 4 3 5 5 5 5 3 3 7 8 8 6 6 6 7 6 6 4 4 4 3 2 3 3 2 3 3 2 5 3 4 6 6 8 13 13 10
7 5 4 5 4 6 5 8 11 9 6 6 6 5 6 7 7 8 9 10 8 8 3 4 4 2 3 2 2 2 2 3 7 9 10 11 8 9
4 6 9 7 6 4 4 10 10 6 6 6 7 4 4 7 9 9 10 11 13 11 8 7 6 5 3 3 3 2 3 2 9 9 9 8 9 10
7 5 5 5 4 5 5 5 4 6 6 7 6 6 7 7 7 6 8 7 8 7 9 10 6 6 6 5 5 4 5 5 8 8 8 7 9 9
8 4 2 2 3 3 3 4 4 5 6 6 8 8 8 7 7 6 7 4 6 4 4 4 6 7 6 4 5 6 5 5 6 9 8 9 8 8
3 3 4 4 5 6 5 5 4 5 5 6 7 8 8 8 8 5 4 6 8 5 4 3 4 4 2 5 8 5 4 5 6 7 8 8 7 8
3 4 5 6 6 6 6 5 5 5 5 7 8 8 7 6 8 7 7 8 7 5 3 2 3 3 3 2 2 6 6 5 7 7 7 7 7 7
4 5 7 7 7 7 8 8 7 6 7 7 7 7 7 8 8 8 8 7 7 6 4 1 2 1 2 3 3 3 4 6 6 7 7 7 6 12
8 7 6 7 7 8 7 7 7 7 7 8 8 9 9 9 9 8 7 9 9 5 6 2 2 2 5 4 3 1 3 6 6 5 7 7 7 4
8 9 7 7 7 7 7 6 6 6 7 8 9 9 9 9 10 9 8 9 3 6 8 4 3 2 2 2 3 2 3 4 6 7 6 7 5 7
8 8 8 8 7 8 8 8 9 8 9 9 8 8 9 9 8 8 7 3 8 7 4 3 2 1 3 3 1 0 3 4 4 5 4 9 14 12
Wind_Direction
118 107 110 127 95 99 110 137 110 113 91 65 98 108 124 130 126 126 128 133 126 131 136 166 151 149 151 153 154 189 214 238 278 281 267 256 263 273
105 118 109 94 106 108 126 127 104 118 118 93 72 110 111 110 122 118 119 126 130 141 174 159 154 147 163 180 205 235 259 270 267 279 290 296 295 291
106 120 118 132 126 131 121 111 106 95 112 106 115 131 111 124 115 111 122 111 126 167 161 157 155 175 197 219 240 253 261 315 325 307 295 286 277 272
116 121 129 116 121 129 124 113 108 109 118 134 134 138 126 118 122 124 123 123 146 170 187 186 179 202 226 245 284 324 357 338 288 282 301 315 323 324
117 126 127 124 128 125 120 124 119 118 120 131 124 117 131 129 128 105 118 126 147 186 187 192 206 249 351 10 350 351 279 317 338 341 347 346 347 345
103 109 123 139 141 128 120 128 128 124 126 115 125 135 122 124 99 112 111 84 136 106 68 52 80 95 62 56 57 50 49 45 38 35 29 19 7 3
115 114 121 118 103 101 114 113 117 105 117 112 100 121 129 123 141 131 103 125 72 84 87 50 77 78 65 67 74 66 59 58 63 59 52 44 32 24
113 111 112 104 99 93 88 73 99 117 107 96 104 126 129 125 127 147 134 143 128 58 101 74 81 79 66 67 70 69 66 67 68 66 60 44 31 16
112 119 108 102 98 97 86 84 89 95 105 130 140 149 153 165 141 143 139 107 100 88 112 91 66 88 71 67 74 80 80 82 77 60 43 33 18 1
107 108 114 103 85 100 96 86 93 102 116 123 132 146 126 151 141 141 126 106 94 83 22 110 164 114 93 81 78 94 88 64 49 39 27 17 8 355
120 120 121 105 86 75 94 114 111 84 49 72 81 93 116 134 139 122 124 128 94 57 39 111 158 124 125 105 90 66 57 50 41 30 16 1 350 340
118 115 119 115 98 77 105 136 112 116 119 101 82 66 72 79 77 76 151 141 135 139 84 124 152 179 146 123 54 48 49 42 17 3 352 357 359 17
151 155 150 129 131 145 118 124 105 131 112 105 95 87 81 79 73 66 68 128 124 97 182 176 144 123 72 96 63 45 46 35 13 7 6 11 355 4
165 163 142 157 179 180 163 124 127 117 124 117 108 101 105 94 81 75 77 82 68 90 74 70 90 84 101 92 112 346 335 36 14 16 9 1 356 0
154 158 145 151 146 148 172 154 149 135 130 125 134 130 119 120 114 103 97 88 70 57 53 52 89 93 85 104 143 9 337 358 13 11 360 352 358 3
107 98 101 105 80 111 114 152 147 145 150 150 143 127 131 138 139 129 106 99 83 61 41 47 83 111 119 99 90 67 28 13 2 359 349 356 359 2
113 105 118 130 148 144 130 153 150 154 156 143 147 150 154 151 141 133 128 93 109 132 114 76 74 89 84 107 71 41 24 12 2 353 354 357 360 352
110 153 178 187 187 183 179 166 172 178 160 150 155 163 165 164 147 135 105 118 128 141 136 144 148 122 119 82 53 36 26 2 356 358 4 352 345 352
168 183 190 191 201 196 187 185 186 190 162 171 171 171 161 148 145 149 135 136 126 116 99 101 145 169 136 118 107 62 15 1 348 0 358 347 316 321
203 197 200 190 197 197 195 196 188 174 178 176 171 165 163 158 156 147 147 138 135 125 125 101 100 122 149 112 107 50 36 6 358 347 339 324 290 288
208 212 199 192 198 202 205 200 186 182 178 170 168 169 168 163 160 152 142 141 136 127 139 172 142 101 102 108 101 31 6 360 1 345 332 324 327 293
208 216 211 202 197 194 188 179 173 163 172 180 177 171 168 167 161 153 156 150 162 146 131 155 180 156 86 89 94 17 343 331 354 356 358 14 342 325
210 210 203 200 195 192 186 187 188 186 183 179 172 174 163 164 150 132 118 128 142 130 120 188 164 63 85 81 81 21 319 343 343 334 341 342 333 331